Wind_Speed
7 7 8 8 8 8 9 9 9 9 9 8 7 7 8 8 8 7 7 7 8 8 8 8 8 7 7 7 7 7 7 7 7 8 9 9 9 10 10 9 9 8 8
7 7 7 7 7 7 8 9 8 8 8 8 8 8 7 8 8 8 8 8 8 8 8 8 9 9 9 9 9 9 8 8 9 10 10 10 11 11 11 10 10 9 8
8 7 7 7 7 6 7 8 8 8 9 9 9 9 9 9 8 9 9 9 9 9 9 9 10 10 10 10 10 10 9 10 11 11 12 12 12 11 11 11 10 10 9
10 9 8 7 7 6 7 7 8 8 9 9 10 10 10 10 9 9 9 10 10 10 10 10 11 11 11 11 11 11 11 12 12 12 12 13 13 14 13 12 12 12 12
11 10 9 8 7 6 6 7 7 8 9 9 10 10 10 10 10 10 10 10 11 11 11 12 12 12 13 13 13 12 13 13 13 13 14 14 14 14 15 15 14 13 13
11 11 10 9 8 7 7 7 7 8 9 9 10 10 11 11 11 11 11 11 11 12 12 13 13 13 14 14 14 14 14 14 14 14 15 16 16 16 16 16 16 16 16
11 11 10 9 8 8 8 8 8 9 10 11 11 11 12 11 12 12 12 12 12 13 13 14 14 14 15 15 15 15 15 15 15 15 16 16 17 17 17 17 17 17 18
10 10 9 8 9 9 8 9 10 11 12 12 13 13 12 12 13 13 13 13 13 14 14 15 15 15 16 16 17 17 17 17 17 16 17 18 18 18 18 18 18 18 19
10 10 9 9 9 9 10 10 11 12 13 13 13 13 14 14 14 14 14 14 15 15 16 16 16 17 17 18 19 19 19 18 18 18 19 19 19 20 20 20 20 20 20
10 9 9 9 9 10 11 11 12 13 14 13 14 14 15 15 15 14 15 16 17 18 18 18 18 18 19 20 21 21 20 19 20 20 20 20 20 21 21 21 21 21 20
10 10 10 10 11 11 12 12 13 14 14 14 14 14 15 15 15 15 16 17 18 18 18 19 19 20 20 21 21 21 21 21 21 21 21 22 22 22 22 22 22 21 20
11 11 11 12 12 12 12 13 13 14 15 14 14 14 15 17 17 16 17 18 19 20 20 21 21 21 21 21 21 21 21 21 22 22 22 22 22 22 22 22 22 22 22
10 11 12 12 13 13 13 13 14 14 14 14 15 16 17 18 18 19 19 19 20 21 22 22 22 22 22 22 22 22 22 23 23 23 22 22 22 22 23 23 23 23 24
10 12 13 13 13 13 13 13 14 14 14 15 16 17 18 19 20 20 20 21 22 23 23 23 24 24 23 23 23 24 24 25 25 24 23 23 23 23 24 24 24 24 24
11 12 12 12 13 13 13 14 15 15 16 16 17 18 19 20 21 21 22 23 23 24 24 24 24 25 25 24 25 25 25 25 25 25 24 24 24 24 24 24 24 25 25
13 13 14 14 14 14 15 15 16 16 17 17 18 20 21 21 22 22 23 23 24 25 25 25 25 25 26 25 25 25 25 25 25 25 24 24 25 25 25 25 25 25 25
16 16 16 15 15 15 16 17 17 18 18 19 20 21 21 22 22 23 23 24 25 25 25 25 25 25 25 25 24 25 25 25 24 24 24 24 25 26 26 26 26 26 26
17 16 17 17 16 17 17 18 19 19 19 20 20 21 22 23 23 23 24 25 26 26 25 25 25 25 25 25 24 25 25 24 24 24 24 24 24 26 26 26 26 27 27
18 18 18 18 18 18 17 17 19 20 20 21 21 22 23 24 24 24 25 26 26 26 26 26 26 26 25 25 25 25 25 24 24 24 24 25 25 25 26 26 26 26 27
19 20 20 19 19 18 18 19 19 20 21 21 22 22 23 24 24 25 26 27 26 27 27 27 27 27 26 26 26 27 26 25 25 25 26 26 26 27 27 26 26 27 28
20 20 21 20 19 19 20 21 21 21 22 23 23 23 24 25 25 26 27 27 28 28 28 28 27 26 26 26 27 27 26 26 26 26 26 26 27 27 27 27 27 28 28
20 20 20 21 22 23 22 22 23 23 24 25 24 24 25 26 26 27 27 28 28 29 28 28 27 26 26 26 27 27 26 26 26 26 26 26 27 27 26 27 27 28 27
21 20 22 22 23 22 23 23 24 24 25 26 25 25 26 27 27 28 28 28 28 28 28 28 27 27 26 27 27 27 27 27 27 27 27 27 27 27 27 27 27 27 27
22 22 23 23 24 24 23 24 25 25 25 25 25 26 27 27 28 28 28 28 28 27 27 27 27 27 28 28 28 28 28 27 27 26 26 26 27 27 27 27 27 27 27
23 23 23 23 24 23 24 24 25 25 25 26 28 28 27 27 27 28 28 28 27 27 27 27 28 28 28 28 28 28 28 27 26 26 25 25 26 26 26 27 27 26 26
24 24 24 24 24 24 25 25 25 26 27 27 28 28 28 28 28 28 28 28 28 28 28 28 29 28 28 28 28 28 28 28 27 26 26 25 26 26 25 25 26 26 25
Wind_Direction
8 14 14 12 20 22 23 23 25 25 24 27 29 28 24 21 15 14 15 16 15 13 9 6 7 6 359 350 342 336 333 330 327 327 324 321 317 315 310 306 300 290 284
358 1 3 5 12 13 14 15 17 17 15 15 15 15 15 13 11 8 3 3 4 6 8 6 360 353 345 341 338 334 327 322 317 316 316 315 313 309 307 306 298 287 282
354 350 350 352 354 356 358 2 3 6 8 9 9 10 8 5 4 358 355 356 359 1 1 357 350 345 341 337 333 330 325 321 315 313 311 311 309 305 304 303 296 289 284
347 343 337 340 345 344 350 350 349 353 359 2 0 358 354 350 347 347 350 353 352 352 349 345 341 339 336 334 332 328 322 319 316 312 310 310 307 304 302 298 292 287 282
340 339 335 333 337 337 343 342 339 342 345 348 351 349 347 344 341 340 338 338 337 337 337 337 337 334 331 329 327 324 321 317 314 312 310 306 302 300 298 297 292 287 282
334 336 335 330 327 329 336 334 331 333 334 338 342 343 340 337 335 334 331 328 327 328 329 331 331 330 328 324 321 319 317 314 311 310 308 305 299 298 297 295 290 286 283
328 331 328 324 325 321 320 325 329 329 329 330 331 330 330 329 326 325 324 324 323 323 323 324 325 325 323 319 317 314 312 310 308 307 306 305 301 297 296 295 291 287 285
321 321 323 319 311 309 311 314 318 320 320 322 322 323 324 322 320 319 319 320 320 320 319 318 318 317 316 315 313 311 309 307 305 304 304 303 302 299 298 294 291 289 286
313 314 317 320 313 309 307 307 311 314 316 317 317 317 318 318 318 319 317 316 316 316 315 313 312 312 312 312 310 307 305 304 302 300 300 300 300 299 298 295 291 288 286
306 308 308 311 309 306 305 306 308 309 311 313 314 314 314 316 317 318 319 318 318 317 315 311 311 311 310 309 308 305 302 301 300 300 299 299 298 296 295 293 290 287 284
306 307 305 304 304 303 302 302 304 305 307 310 312 313 312 310 312 316 318 318 316 315 316 314 313 312 309 308 308 306 304 302 300 300 299 297 297 295 293 292 290 288 286
300 306 307 303 302 300 301 302 305 306 305 306 308 309 312 312 310 311 314 314 313 313 312 313 312 311 310 308 307 305 304 302 303 303 300 297 295 292 291 291 290 288 287
294 300 303 302 300 300 301 302 305 308 305 305 307 311 314 315 314 312 312 311 311 311 312 311 310 309 308 308 307 306 305 305 304 303 301 297 294 292 292 291 289 287 286
291 297 301 298 296 298 300 301 305 307 307 307 308 311 314 314 314 313 312 312 312 311 311 310 309 308 307 305 304 304 303 304 304 303 301 297 295 294 293 290 288 288 286
290 294 294 293 297 299 300 301 302 305 307 307 309 311 313 313 313 313 312 312 311 310 310 309 309 309 307 304 303 301 302 302 302 301 298 296 294 294 293 291 289 288 287
290 293 295 296 297 298 298 297 298 302 306 308 308 308 310 311 312 311 310 310 310 309 309 310 310 309 309 305 304 303 302 301 299 297 297 295 293 293 293 292 290 289 288
291 292 294 297 296 299 306 302 300 302 304 306 308 309 310 312 312 311 310 311 310 309 309 310 309 309 309 307 304 304 303 302 300 299 297 296 294 293 292 291 289 289 288
291 295 295 295 298 300 303 304 303 303 304 306 308 309 310 311 311 310 310 311 312 312 311 310 308 308 308 306 305 303 303 303 302 301 300 300 298 295 293 291 288 288 288
286 290 297 296 297 299 300 303 305 304 304 304 305 307 309 310 310 310 310 311 312 312 312 311 310 309 308 307 307 306 304 303 302 302 301 301 299 298 295 292 290 289 289
286 286 293 294 293 297 301 303 304 304 304 305 306 307 308 310 310 310 311 311 311 311 311 310 309 308 306 307 307 308 306 304 303 302 301 300 299 299 297 295 292 291 289
285 287 289 291 293 296 299 302 304 304 306 307 306 307 307 309 310 310 310 310 310 309 308 307 307 306 305 306 307 308 307 304 302 301 300 299 298 298 296 295 295 294 290
284 286 289 290 293 294 296 299 302 301 303 305 304 305 307 309 309 310 309 309 308 308 307 307 306 305 305 306 307 308 309 306 304 302 300 300 300 300 299 297 296 296 293
281 286 290 289 291 293 296 298 300 301 301 304 302 303 305 307 308 309 309 310 309 308 308 307 306 305 304 306 307 308 308 307 304 302 302 301 301 301 300 299 298 296 295
281 287 288 289 289 291 294 297 298 300 302 302 301 303 304 305 307 308 309 310 310 309 309 308 307 307 306 306 306 307 307 306 305 304 303 302 301 300 300 300 298 297 297
281 284 287 288 290 291 294 296 298 301 302 303 304 304 305 306 307 308 310 311 309 309 308 308 308 308 307 306 305 305 305 305 304 304 302 302 302 300 299 299 299 297 297
281 285 287 288 290 291 293 295 298 301 302 304 305 305 305 305 306 307 308 308 309 309 309 307 307 307 307 306 306 305 305 305 304 303 303 302 302 302 301 301 301 299 298
Height
5899 5898 5897 5895 5894 5893 5892 5890 5888 5886 5885 5883 5881 5880 5878 5877 5875 5874 5873 5871 5870 5869 5867 5865 5864 5863 5862 5860 5859 5858 5857 5856 5854 5853 5851 5849 5848 5846 5845 5843 5842 5840 5839
5899 5898 5896 5895 5894 5893 5892 5890 5889 5887 5885 5884 5882 5880 5879 5877 5876 5875 5873 5871 5870 5868 5866 5865 5863 5862 5861 5859 5858 5856 5855 5853 5852 5851 5849 5847 5846 5844 5843 5841 5840 5838 5837
5898 5897 5896 5895 5893 5892 5891 5890 5889 5887 5886 5884 5882 5880 5879 5877 5876 5874 5872 5870 5869 5867 5866 5864 5862 5861 5859 5857 5856 5854 5853 5851 5850 5848 5847 5845 5843 5842 5841 5839 5837 5836 5834
5897 5896 5895 5893 5892 5891 5890 5889 5888 5887 5885 5884 5882 5880 5878 5877 5875 5873 5871 5870 5868 5866 5864 5863 5861 5859 5857 5855 5853 5852 5850 5849 5847 5845 5844 5842 5841 5839 5837 5836 5834 5833 5832
5895 5894 5893 5892 5891 5890 5889 5888 5887 5885 5884 5883 5881 5879 5877 5875 5874 5872 5870 5868 5866 5864 5863 5861 5859 5857 5855 5853 5851 5849 5847 5845 5844 5842 5840 5838 5837 5836 5834 5832 5831 5829 5828
5893 5892 5891 5890 5889 5889 5888 5887 5886 5884 5882 5881 5879 5878 5876 5874 5872 5870 5868 5867 5865 5862 5860 5858 5856 5854 5852 5850 5848 5846 5844 5842 5840 5838 5836 5835 5833 5831 5830 5828 5827 5825 5824
5890 5890 5889 5889 5888 5887 5886 5885 5884 5883 5881 5879 5877 5876 5874 5872 5870 5868 5866 5864 5862 5860 5858 5856 5853 5851 5849 5846 5844 5842 5840 5838 5836 5834 5832 5830 5828 5827 5825 5823 5822 5820 5819
5888 5888 5887 5887 5886 5885 5884 5883 5882 5881 5879 5877 5875 5873 5871 5869 5867 5865 5864 5862 5860 5857 5855 5852 5850 5848 5845 5843 5840 5838 5835 5833 5831 5829 5827 5825 5823 5822 5820 5818 5816 5815 5813
5885 5885 5885 5884 5883 5882 5882 5880 5879 5878 5877 5874 5872 5870 5868 5866 5864 5862 5861 5859 5856 5854 5851 5849 5846 5844 5841 5838 5836 5833 5831 5829 5826 5824 5822 5820 5818 5816 5814 5812 5810 5809 5808
5882 5882 5882 5881 5881 5880 5879 5878 5876 5875 5873 5871 5869 5867 5865 5863 5861 5859 5857 5855 5853 5850 5848 5845 5842 5839 5837 5834 5831 5828 5826 5823 5821 5819 5817 5814 5812 5810 5808 5806 5804 5803 5802
5880 5879 5879 5879 5878 5877 5876 5875 5873 5871 5869 5868 5866 5863 5861 5859 5857 5855 5853 5851 5849 5846 5843 5841 5838 5835 5832 5829 5826 5824 5820 5818 5815 5813 5811 5808 5806 5804 5802 5800 5798 5796 5795
5877 5876 5876 5875 5875 5874 5873 5872 5870 5867 5865 5864 5862 5860 5858 5856 5853 5851 5849 5847 5844 5841 5839 5836 5833 5830 5827 5824 5821 5818 5815 5812 5810 5807 5804 5802 5800 5798 5795 5793 5791 5790 5788
5875 5874 5873 5872 5871 5870 5869 5868 5866 5864 5862 5860 5858 5856 5854 5852 5849 5847 5845 5842 5839 5836 5834 5831 5828 5824 5821 5818 5815 5812 5809 5806 5804 5801 5798 5796 5793 5791 5789 5787 5785 5783 5781
5872 5871 5870 5869 5868 5867 5865 5864 5863 5861 5859 5857 5855 5852 5850 5848 5845 5843 5840 5837 5834 5831 5828 5825 5822 5819 5815 5812 5809 5806 5803 5800 5798 5795 5792 5789 5787 5785 5782 5780 5778 5776 5774
5868 5867 5866 5865 5864 5863 5862 5861 5859 5857 5855 5853 5851 5848 5846 5844 5841 5838 5835 5832 5829 5826 5822 5819 5816 5812 5809 5806 5802 5798 5795 5794 5791 5788 5785 5783 5780 5778 5775 5773 5771 5769 5767
5864 5863 5862 5861 5860 5859 5858 5856 5855 5853 5851 5849 5847 5844 5841 5839 5836 5833 5830 5827 5823 5820 5816 5813 5809 5806 5802 5799 5796 5793 5790 5787 5784 5782 5779 5776 5774 5771 5769 5766 5764 5762 5760
5860 5860 5859 5858 5857 5855 5853 5852 5851 5848 5846 5844 5842 5839 5836 5834 5831 5828 5825 5821 5817 5814 5810 5807 5803 5800 5796 5793 5789 5786 5783 5781 5777 5775 5772 5769 5766 5764 5761 5759 5756 5754 5752
5857 5856 5855 5854 5853 5851 5850 5848 5846 5843 5841 5839 5837 5834 5831 5828 5825 5822 5819 5815 5812 5808 5804 5801 5797 5794 5790 5787 5783 5780 5777 5774 5771 5768 5765 5762 5759 5757 5754 5751 5749 5747 5744
5852 5851 5850 5849 5848 5847 5845 5843 5841 5839 5837 5834 5832 5829 5826 5823 5820 5817 5813 5809 5806 5802 5798 5795 5791 5788 5784 5780 5777 5773 5770 5767 5764 5761 5758 5755 5752 5749 5746 5744 5742 5739 5737
5847 5846 5844 5843 5843 5842 5840 5839 5836 5834 5832 5830 5827 5824 5821 5818 5814 5811 5807 5803 5799 5796 5792 5788 5785 5781 5778 5774 5771 5767 5764 5760 5757 5754 5751 5748 5745 5742 5739 5736 5734 5732 5729
5842 5841 5840 5839 5837 5836 5835 5833 5831 5829 5826 5824 5821 5818 5815 5812 5808 5804 5801 5797 5793 5789 5786 5782 5779 5775 5771 5768 5764 5760 5757 5753 5750 5747 5744 5741 5737 5734 5731 5728 5726 5723 5720
5837 5836 5835 5834 5832 5831 5829 5827 5825 5823 5820 5818 5815 5812 5809 5805 5802 5798 5794 5790 5786 5783 5779 5775 5771 5768 5764 5760 5757 5753 5749 5746 5743 5740 5736 5733 5730 5727 5723 5720 5718 5715 5712
5831 5830 5829 5828 5827 5825 5823 5822 5819 5817 5814 5811 5808 5805 5802 5798 5795 5791 5787 5784 5780 5776 5772 5768 5764 5760 5757 5753 5749 5746 5742 5738 5735 5732 5729 5725 5722 5719 5716 5713 5710 5707 5704
5825 5824 5823 5822 5820 5819 5817 5815 5812 5810 5807 5804 5801 5798 5795 5791 5788 5784 5780 5777 5773 5769 5765 5761 5757 5753 5750 5746 5742 5738 5735 5731 5727 5724 5721 5718 5715 5711 5708 5705 5702 5699 5696
5819 5818 5817 5815 5814 5812 5810 5808 5805 5803 5801 5798 5795 5791 5788 5784 5781 5777 5774 5770 5766 5762 5758 5754 5750 5746 5742 5738 5734 5731 5727 5723 5720 5717 5713 5710 5707 5704 5701 5698 5694 5691 5689
5813 5811 5810 5809 5807 5805 5803 5801 5799 5796 5794 5790 5787 5784 5781 5777 5774 5770 5766 5762 5758 5754 5750 5746 5742 5738 5735 5731 5727 5723 5720 5716 5712 5709 5706 5703 5700 5696 5693 5690 5687 5684 5681